Edwards AFB North Base, CA

7:58 PM PST on November 19, 2019 (GMT -0800)
Edwards AFB North Base

Weather History for K9L2 - October, 2019

Change the Weather History Date:

Wednesday, October 23, 2019

  Actual Average (WUND) Record (WUND)
Temperature  
Mean Temperature 64 °F -  
Max Temperature 86 °F - - (-1)
Min Temperature 41 °F - - (-1)
Degree Days  
Heating Degree Days 2    
Growing Degree Days 14 (Base 50)    
Moisture  
Dew Point 19 °F    
Average Humidity 18    
Maximum Humidity 33    
Minimum Humidity 9    
Precipitation  
Precipitation 0.00 in - - ()
Sea Level Pressure  
Sea Level Pressure 29.99 in    
Wind  
Wind Speed 6 mph ()    
Max Wind Speed 13 mph    
Max Gust Speed -    
Visibility 7.8 miles    
Events      
Averages and records for this station are not official NWS values.
T = Trace of Precipitation, MM = Missing Value Source: Averaged Metar Reports

Daily Weather History Graph

Daily Weather History Graph

Search for Another Location

Airport or City:

Astronomy

Oct. 23, 2019 Rise Set
Actual Time 7:04 AM PDT 6:06 PM PDT
Civil Twilight 6:38 AM PDT 6:32 PM PDT
Nautical Twilight 6:08 AM PDT 7:02 PM PDT
Astronomical Twilight 5:39 AM PDT 7:31 PM PDT
Moon 1:45 AM PDT (10/23) 3:45 PM PDT (10/23)
Length of Visible Light 11h 54m
Length of Day
11h 02m
Waning Crescent, 25% of the Moon is Illuminated
Oct 23
Waning Crescent
Oct 27
New
Nov 4
First Quarter
Nov 12
Full
Nov 19
Last Quarter

Hourly Weather History & Observations

Time (PDT) Temp. Dew Point Humidity Pressure Visibility Wind Dir Wind Speed Gust Speed Precip Events Conditions
12:58 AM 51.4 °F 17.1 °F 26% 30.04 in 10.0 mi North - - N/A   Clear
1:58 AM 47.8 °F 12.4 °F 24% 30.04 in 8.0 mi North - - N/A   Clear
2:58 AM 46.4 °F 16.5 °F 30% 30.03 in 10.0 mi North - - N/A   Clear
3:58 AM 44.8 °F 13.6 °F 28% 30.02 in 10.0 mi North - - N/A   Clear
4:58 AM 42.4 °F 14.9 °F 33% 30.01 in 10.0 mi North - - N/A   Clear
6:58 AM 41.5 °F 11.7 °F 30% 30.04 in 10.0 mi North - - N/A   Clear
7:58 AM 46.8 °F 17.2 °F 31% 30.06 in 10.0 mi North - - N/A   Clear
8:28 AM 46.4 °F 12.2 °F 25% 30.07 in 5.0 mi North - - N/A   Haze
8:43 AM 48.2 °F 15.8 °F 27% 30.06 in 7.0 mi North - - N/A   Clear
8:58 AM 49.8 °F 16.3 °F 26% 30.06 in 7.0 mi North - - N/A   Clear
9:58 AM 55.9 °F 19.9 °F 25% 30.07 in 8.0 mi North - - N/A   Clear
10:58 AM 66.7 °F 23.0 °F 19% 30.04 in 5.0 mi North - - N/A   Haze
11:58 AM 73.4 °F 23.0 °F 15% 30.03 in 6.0 mi North - - N/A   Haze
12:43 PM 77.0 °F 23.0 °F 13% 30.00 in 6.0 mi North - - N/A   Haze
12:58 PM 78.6 °F 21.7 °F 12% 30.03 in 7.0 mi SE 3.5 mph - N/A   Clear
1:58 PM 83.3 °F 21.9 °F 10% 29.96 in 6.0 mi SSE 5.8 mph - N/A   Haze
2:58 PM 85.8 °F 20.5 °F 9% 29.95 in 6.0 mi NNE 8.1 mph - N/A   Haze
3:43 PM 86.0 °F 19.4 °F 9% 29.94 in 7.0 mi East 8.1 mph - N/A   Clear
3:58 PM 85.5 °F 20.1 °F 9% 29.94 in 6.0 mi ENE 6.9 mph - N/A   Haze
4:13 PM 84.2 °F 21.2 °F 10% 29.94 in 6.0 mi ENE 9.2 mph - N/A   Haze
4:28 PM 84.2 °F 19.4 °F 9% 29.94 in 7.0 mi ENE 8.1 mph - N/A   Clear
4:43 PM 84.2 °F 21.2 °F 10% 29.94 in 6.0 mi NE 12.7 mph - N/A   Haze
4:58 PM 84.2 °F 20.3 °F 9% 29.94 in 6.0 mi NE 11.5 mph - N/A   Haze
5:13 PM 84.2 °F 21.2 °F 10% 29.94 in 7.0 mi NNE 9.2 mph - N/A   Clear
5:28 PM 82.4 °F 21.2 °F 10% 29.92 in 6.0 mi NE 10.4 mph - N/A   Haze
5:43 PM 82.4 °F 19.4 °F 10% 29.94 in 7.0 mi NE 8.1 mph - N/A   Clear
5:58 PM 80.2 °F 20.8 °F 11% 29.93 in 6.0 mi NE 6.9 mph - N/A   Haze
6:28 PM 73.4 °F 19.4 °F 13% 29.95 in 9.0 mi NE 8.1 mph - N/A   Clear
6:58 PM 71.6 °F 19.8 °F 14% 29.96 in 10.0 mi ENE 5.8 mph - N/A   Clear
7:58 PM 65.8 °F 19.8 °F 17% 29.98 in 10.0 mi East 4.6 mph - N/A   Clear
8:58 PM 64.0 °F 21.0 °F 19% 29.99 in 10.0 mi North 5.8 mph - N/A   Clear
9:58 PM 63.7 °F 20.8 °F 19% 30.00 in 10.0 mi North 8.1 mph - N/A   Clear
10:58 PM 60.4 °F 21.2 °F 22% 30.00 in 10.0 mi NNW 5.8 mph - N/A   Clear
11:58 PM 57.0 °F 21.4 °F 25% 30.01 in 10.0 mi NNW 3.5 mph - N/A   Clear